User: anonymous   Login
Location: Noordwijk
(52.2400°N, 4.4500°E)
Time: 11:25:12
(UTC+00:00)
Language:

AO-109 - Orbit

View from above orbital plane
View from above orbital plane
View from above satellite
View from above satellite

Ground track
Ground track

The orbit data is extracted from the following two-line orbital elements,

1 47311U 21002C   22337.76513780  .00010004  00000-0  35807-3 0  9996
2 47311  60.6845  83.4988 0038558  77.9579 282.5828 15.28684289104317
Epoch (UTC): 03 December 2022 18:21:47
Eccentricity: 0.0038558
inclination: 60.6845°
perigee height: 453 km
apogee height: 506 km
right ascension of ascending node: 83.4988°
argument of perigee: 77.9579°
revolutions per day: 15.28684289
mean anomaly at epoch: 282.5828°
orbit number at epoch: 10431

The dashed part of the orbit path shows where the satellite is in the earth's shadow,  

DLR